TimeMST,TemperatureF,Dew PointF,Humidity,Sea Level PressureIn,VisibilityMPH,Wind Direction,Wind SpeedMPH,Gust SpeedMPH,PrecipitationIn,Events,Conditions,WindDirDegrees,DateUTC
12:53 AM,23.0,12.0,63,30.30,10.0,Calm,Calm,-,N/A,,Clear,0,2013-02-28 07:53:00
1:53 AM,21.0,10.0,63,30.32,10.0,NE,5.8,-,N/A,,Clear,40,2013-02-28 08:53:00
2:53 AM,18.0,12.0,78,30.33,10.0,NE,4.6,-,N/A,,Clear,50,2013-02-28 09:53:00
3:53 AM,17.1,10.9,77,30.35,10.0,ENE,5.8,-,N/A,,Clear,60,2013-02-28 10:53:00
4:53 AM,16.0,10.9,81,30.35,10.0,ENE,5.8,-,N/A,,Clear,60,2013-02-28 11:53:00
5:53 AM,15.1,9.0,77,30.39,10.0,ENE,5.8,-,N/A,,Clear,60,2013-02-28 12:53:00
7:53 AM,19.0,10.0,68,30.40,10.0,NE,8.1,-,N/A,,Clear,50,2013-02-28 14:53:00
8:53 AM,28.0,9.0,45,30.38,10.0,East,5.8,-,N/A,,Clear,80,2013-02-28 15:53:00
9:53 AM,32.0,8.1,37,30.38,10.0,Calm,Calm,-,N/A,,Clear,0,2013-02-28 16:53:00
10:53 AM,37.9,10.0,32,30.35,10.0,West,12.7,-,N/A,,Clear,280,2013-02-28 17:53:00
11:53 AM,41.0,10.9,29,30.33,10.0,West,12.7,20.7,N/A,,Clear,280,2013-02-28 18:53:00
12:53 PM,44.1,3.0,18,30.31,10.0,NW,17.3,21.9,N/A,,Clear,310,2013-02-28 19:53:00
1:53 PM,45.0,7.0,21,30.31,10.0,NNW,11.5,18.4,N/A,,Clear,330,2013-02-28 20:53:00
2:53 PM,44.1,10.0,25,30.33,10.0,NNW,13.8,-,N/A,,Clear,330,2013-02-28 21:53:00
3:53 PM,43.0,10.0,26,30.35,10.0,NW,18.4,24.2,N/A,,Clear,310,2013-02-28 22:53:00
4:53 PM,42.1,10.9,28,30.36,10.0,NNW,13.8,24.2,N/A,,Clear,340,2013-02-28 23:53:00
5:53 PM,39.0,12.0,33,30.38,10.0,NW,10.4,-,N/A,,Clear,320,2013-03-01 00:53:00
6:53 PM,35.1,12.0,39,30.40,10.0,North,5.8,-,N/A,,Clear,350,2013-03-01 01:53:00
7:53 PM,33.1,12.9,43,30.43,10.0,Calm,Calm,-,N/A,,Clear,0,2013-03-01 02:53:00
8:53 PM,30.9,17.1,57,30.41,10.0,ESE,8.1,-,N/A,,Clear,110,2013-03-01 03:53:00
9:53 PM,27.0,15.1,61,30.41,10.0,North,4.6,-,N/A,,Clear,360,2013-03-01 04:53:00
10:53 PM,25.0,18.0,75,30.41,10.0,ESE,5.8,-,N/A,,Clear,110,2013-03-01 05:53:00
11:53 PM,25.0,17.1,72,30.41,10.0,NE,3.5,-,N/A,,Clear,40,2013-03-01 06:53:00